Lid_Strength_Index
6 6 7 7 8 8 7 6 4 0 0 1 0 -0 0 0 1 1 2 2 2 2
6 6 6 7 7 8 8 6 5 4 0 1 1 0 1 1 1 0 1 1 1 1
6 6 5 6 7 8 8 7 6 5 1 0 0 1 1 1 0 1 1 1 1 1
6 6 6 7 6 7 7 8 8 6 5 1 1 1 1 1 1 1 1 1 1 1
5 6 6 7 8 7 7 8 7 7 5 2 1 1 1 1 1 1 2 1 1 2
5 6 6 6 6 7 7 7 8 8 7 5 1 1 1 1 1 1 1 1 2 1
5 6 6 6 6 7 7 8 9 8 7 6 4 2 1 1 1 1 2 2 1 2
5 5 5 6 7 7 7 7 7 8 8 7 5 9 9 3 1 2 2 2 2 2
5 5 6 6 7 7 7 8 8 8 8 7 8 13 13 12 7 2 2 2 2 2
6 6 6 6 7 7 8 8 8 8 8 8 10 13 13 13 8 4 1 1 1 2
6 6 6 6 7 8 7 8 8 8 8 9 10 12 13 14 6 5 1 1 2 2
7 7 6 6 7 8 8 7 8 8 9 9 10 13 13 13 8 7 4 1 1 1
7 7 7 7 7 7 7 8 8 8 8 10 10 11 12 13 11 11 10 8 4 8
7 7 7 7 7 8 8 8 8 9 8 8 9 9 11 11 11 13 13 10 8 7